GFSNE_925_temp_000.txt.gz
Temp
3 3 3 2 1 1 1 2 2 4 6 8 9 9 8 7 7 7 7 7 6 6 6 6 6 7 7 7 8 8 8 8 7 8 8 9 10 11
2 3 4 5 4 4 4 4 4 5 6 7 8 8 7 7 7 6 6 6 6 5 5 6 6 6 6 6 7 7 8 8 8 8 8 8 9 10
4 4 4 4 4 4 5 5 5 5 6 6 6 6 6 6 6 6 6 6 6 5 5 4 5 5 5 5 6 7 7 7 7 8 8 8 8 9
4 3 4 4 3 3 3 4 4 4 4 5 5 5 6 6 6 5 5 6 6 6 5 4 4 4 4 5 5 6 6 7 7 7 8 8 8 9
3 3 2 2 2 2 2 2 3 3 3 3 4 4 4 5 5 5 5 5 5 5 4 4 3 3 3 4 4 5 5 6 6 6 7 7 8 8
1 1 1 1 1 1 1 1 1 2 2 2 3 3 3 4 4 4 4 4 4 4 4 4 4 3 3 3 3 3 4 4 5 5 6 7 7 8
1 0 0 -0 -2 -2 -2 -1 -0 1 2 2 3 3 3 3 3 3 3 3 3 4 4 4 4 4 4 3 3 3 3 3 4 5 5 6 6 7
0 0 -0 -1 -1 -2 -3 -3 -4 -2 -1 0 1 1 1 2 1 1 1 1 2 2 2 2 2 3 3 4 4 3 3 3 3 4 4 5 5 6
-1 -1 -1 -1 -2 -2 -2 -3 -4 -4 -4 -4 -3 -2 -1 -1 -1 -0 -0 0 1 1 1 1 1 0 1 2 2 2 2 2 2 2 3 4 4 4
-2 -2 -2 -2 -2 -3 -4 -4 -4 -3 -3 -3 -3 -3 -2 -2 -2 -1 -1 -1 -1 -0 -0 0 -0 -0 -0 -0 0 0 1 1 1 1 2 2 3 3
-3 -3 -3 -4 -4 -5 -5 -4 -4 -3 -3 -4 -3 -3 -3 -4 -3 -3 -3 -2 -1 -1 -0 -0 -0 -1 -0 -0 -1 -0 -1 -0 0 0 1 1 1 2
-5 -5 -5 -5 -4 -5 -5 -5 -4 -3 -3 -3 -3 -3 -4 -3 -3 -3 -3 -2 -1 -1 -1 -1 -0 -0 -0 -0 -0 -0 -1 -1 -0 -0 0 1 1 1
-5 -4 -4 -5 -5 -6 -6 -6 -5 -6 -5 -5 -4 -4 -3 -2 -2 -3 -3 -3 -3 -1 -1 -0 -1 -0 -0 0 -1 -1 -1 -1 -1 -1 -0 0 1 1
-6 -5 -5 -6 -7 -7 -7 -7 -7 -7 -6 -5 -4 -4 -3 -3 -2 -2 -2 -2 -3 -2 -1 -2 -2 -0 -0 -0 0 1 0 -0 -2 -2 -1 -1 1 1
-6 -7 -7 -8 -8 -7 -7 -8 -8 -6 -6 -5 -4 -4 -3 -3 -3 -3 -3 -2 -2 -2 -3 -2 -2 -1 -1 -1 -0 0 -0 -0 -2 -2 -1 -1 -0 -0
-7 -6 -8 -8 -8 -7 -7 -7 -7 -6 -6 -6 -5 -4 -4 -3 -3 -3 -3 -2 -3 -2 -3 -3 -4 -3 -2 -2 -1 -0 -0 -0 -1 -2 -2 -2 -1 -2
-8 -8 -8 -8 -7 -7 -7 -7 -7 -7 -6 -6 -5 -5 -4 -3 -2 -2 -2 -2 -2 -2 -2 -3 -3 -4 -3 -3 -2 -1 -1 -0 -0 -1 -2 -1 -1 -1
-8 -9 -9 -9 -8 -7 -7 -7 -7 -7 -7 -6 -6 -5 -5 -4 -3 -3 -3 -2 -2 -2 -1 -2 -2 -3 -3 -3 -3 -2 -1 -1 -0 -1 -1 -1 -0 0
-9 -9 -9 -9 -8 -8 -8 -8 -8 -8 -8 -7 -6 -6 -6 -5 -3 -3 -3 -3 -2 -2 -1 -1 -1 -2 -1 -1 -3 -4 -3 -1 -2 -1 -2 -2 -2 0
-11 -10 -10 -10 -9 -9 -9 -9 -9 -8 -8 -8 -7 -7 -6 -5 -4 -4 -3 -3 -2 -2 -2 -2 -2 -2 -1 -1 -1 -5 -6 -5 -3 -3 -2 -2 -3 -3
-11 -11 -10 -10 -10 -10 -10 -9 -9 -9 -8 -8 -8 -7 -7 -6 -5 -5 -5 -4 -4 -3 -2 -3 -5 -5 -5 -4 -3 -4 -6 -7 -6 -5 -3 -3 -3 -3
-12 -11 -11 -11 -11 -10 -10 -9 -9 -9 -9 -8 -8 -8 -7 -7 -6 -6 -5 -5 -5 -5 -4 -5 -5 -4 -4 -3 -2 -4 -5 -6 -7 -6 -6 -6 -5 -2
-12 -12 -12 -11 -11 -11 -11 -10 -9 -9 -9 -9 -9 -8 -7 -7 -7 -6 -6 -6 -5 -5 -5 -4 -4 -4 -4 -4 -4 -4 -6 -6 -5 -5 -7 -7 -6 -6

GFSNE_925_temp_003.txt.gz
Temp
3 3 3 3 2 3 3 3 2 3 6 7 7 7 7 8 9 8 8 8 7 6 6 6 6 7 7 7 8 8 8 8 8 8 8 8 8 9
4 4 4 4 5 4 4 4 3 3 4 6 7 7 8 8 9 8 8 7 6 6 6 6 6 6 6 7 7 7 8 8 8 8 8 8 8 9
4 4 4 4 5 5 5 5 5 6 7 7 7 7 8 8 8 8 7 7 7 6 6 6 5 5 5 5 6 6 7 7 7 8 8 8 8 8
3 3 4 4 4 4 5 5 5 5 5 6 6 6 7 7 7 7 7 7 7 7 7 6 5 5 5 5 5 5 5 6 7 7 7 8 7 7
3 3 3 3 3 3 4 4 4 4 4 5 5 5 6 6 6 6 6 6 6 6 6 5 4 4 4 4 4 4 4 5 5 6 7 7 7 7
3 3 2 2 2 2 2 2 3 3 3 3 4 4 5 5 5 5 6 6 6 6 6 6 5 4 4 4 3 3 4 4 4 5 5 6 6 7
2 2 2 2 1 0 -0 -0 -0 0 1 2 3 4 5 5 5 5 5 5 5 5 5 5 5 5 4 4 4 3 3 3 3 4 4 5 5 5
-0 1 1 1 1 0 -1 -2 -2 -2 -1 -0 1 2 2 3 3 3 3 3 3 3 3 3 3 4 4 4 4 4 4 3 3 3 3 3 4 5
-1 -1 -0 0 -0 -0 -1 -1 -2 -3 -3 -3 -3 -2 -1 -0 0 0 1 1 1 2 2 2 2 2 2 2 2 2 1 2 3 3 3 3 3 3
-2 -2 -2 -1 -1 -2 -3 -3 -2 -3 -3 -3 -3 -3 -2 -2 -1 -1 -1 -1 -0 -0 0 1 1 1 1 1 1 1 1 0 1 1 2 2 2 2
-4 -3 -4 -4 -3 -4 -4 -4 -4 -3 -3 -3 -3 -3 -2 -2 -3 -3 -3 -2 -1 -0 0 0 0 0 0 0 0 0 0 0 0 0 0 1 1 1
-5 -4 -4 -4 -4 -5 -5 -5 -4 -3 -4 -4 -3 -3 -3 -3 -3 -3 -3 -2 -2 -1 -0 0 0 0 0 0 0 0 -0 -0 0 0 0 0 0 -0
-6 -5 -5 -6 -7 -6 -6 -6 -5 -6 -5 -5 -4 -4 -3 -3 -2 -2 -3 -3 -2 -1 -1 -1 -2 -0 0 0 1 0 -0 0 -0 -0 -0 0 -0 -0
-6 -6 -6 -7 -7 -7 -7 -7 -7 -7 -6 -5 -5 -4 -3 -3 -2 -2 -2 -2 -2 -2 -2 -2 -3 -1 -0 0 1 1 1 0 0 -0 -0 -0 -0 -0
-7 -7 -7 -8 -7 -7 -6 -7 -7 -6 -5 -5 -4 -4 -3 -3 -3 -3 -3 -3 -2 -2 -2 -2 -2 -3 -2 -0 -0 0 -0 0 -0 -1 -1 -0 -1 -1
-8 -8 -7 -8 -7 -7 -6 -6 -6 -6 -6 -5 -5 -5 -4 -4 -3 -3 -3 -2 -2 -2 -2 -2 -2 -2 -2 -1 -1 -1 -0 -0 -1 -1 -1 -1 -1 -1
-9 -8 -8 -8 -7 -6 -6 -6 -6 -6 -6 -6 -5 -5 -4 -4 -3 -2 -2 -2 -2 -1 -1 -2 -2 -3 -3 -3 -2 -1 -1 -1 -1 -0 -1 -1 -1 -1
-8 -8 -8 -9 -8 -7 -7 -7 -7 -7 -7 -6 -6 -5 -5 -4 -4 -3 -2 -2 -1 -1 -1 -1 -2 -3 -3 -3 -3 -2 -1 -1 -1 -1 -1 -1 0 0
-9 -9 -9 -9 -8 -7 -8 -8 -7 -7 -7 -7 -6 -6 -5 -5 -4 -3 -2 -2 -2 -1 -0 -1 -1 -2 -1 -1 -3 -3 -3 -2 -2 -2 -1 -1 -1 -1
-10 -9 -9 -9 -8 -8 -8 -8 -8 -7 -7 -7 -7 -6 -6 -5 -4 -4 -4 -3 -2 -2 -1 -2 -2 -3 -2 -2 -2 -6 -5 -5 -4 -3 -2 -2 -2 -3
-10 -9 -9 -9 -9 -9 -9 -8 -8 -8 -8 -7 -7 -7 -6 -5 -5 -5 -5 -4 -3 -2 -2 -3 -4 -5 -4 -4 -3 -4 -6 -5 -6 -5 -4 -3 -2 -2
-10 -10 -10 -10 -10 -10 -10 -9 -8 -8 -8 -8 -8 -7 -6 -6 -6 -5 -5 -5 -4 -4 -4 -4 -4 -4 -4 -3 -2 -3 -4 -6 -6 -6 -6 -6 -6 -3
-11 -11 -10 -10 -10 -10 -10 -10 -9 -9 -9 -9 -9 -8 -7 -6 -6 -6 -5 -5 -5 -5 -4 -4 -4 -3 -4 -4 -4 -4 -5 -5 -5 -5 -6 -6 -6 -6

GFSNE_925_temp_006.txt.gz
Temp
3 3 3 3 3 3 3 3 2 2 3 5 4 5 5 4 4 5 6 7 8 8 7 7 7 7 7 7 7 8 8 8 8 9 9 10 9 9
3 3 2 2 2 4 4 4 4 3 2 4 5 6 6 6 5 5 6 7 7 7 6 6 6 6 6 6 6 6 7 7 7 8 8 9 9 9
3 3 3 2 2 2 2 3 4 5 3 5 6 6 6 6 7 6 5 6 7 7 7 7 7 6 6 6 6 6 6 6 6 7 7 7 8 8
3 3 3 3 3 3 3 3 4 4 4 3 4 5 5 5 6 6 6 7 7 7 7 7 7 6 6 6 5 5 5 5 5 6 6 6 7 7
1 1 2 3 3 3 2 2 2 2 2 2 3 3 4 4 4 5 5 6 6 6 6 6 6 6 5 5 5 5 5 5 5 5 5 5 6 6
-0 -0 -0 1 2 2 1 1 1 1 -0 0 1 2 3 3 4 4 4 5 5 5 6 6 6 5 5 5 5 4 4 4 4 4 4 4 5 5
-2 -2 -1 -0 0 1 1 -0 -0 -0 -1 -1 -1 -0 1 2 3 3 3 3 4 4 4 4 4 4 4 5 4 4 4 4 4 4 3 4 4 4
-3 -3 -2 -2 -1 -0 -0 -1 -1 -1 -1 -2 -2 -2 -1 -1 -1 -0 0 1 -1 2 2 2 2 3 3 3 3 3 2 2 2 3 3 3 3 3
-4 -4 -3 -2 -2 -2 -2 -2 -2 -2 -3 -3 -3 -3 -3 -3 -2 -2 -1 -1 -0 0 0 1 1 1 2 2 2 1 1 1 1 1 2 2 2 2
-5 -5 -5 -4 -4 -4 -4 -4 -4 -3 -3 -3 -3 -4 -4 -3 -3 -2 -2 -2 -2 -2 -1 -1 -0 0 0 1 1 1 1 1 1 1 1 1 1 1
-6 -6 -5 -5 -5 -4 -4 -4 -4 -4 -4 -3 -3 -3 -4 -3 -3 -4 -4 -3 -3 -2 -1 -1 -0 -0 0 0 0 0 1 1 1 1 1 1 1 1
-6 -6 -6 -5 -6 -6 -6 -5 -5 -4 -4 -5 -5 -4 -4 -4 -3 -3 -4 -4 -3 -3 -2 -1 -1 -1 -1 -0 0 0 0 0 0 -0 -0 0 0 0
-7 -7 -6 -6 -6 -7 -6 -7 -6 -6 -6 -6 -6 -5 -5 -4 -4 -3 -3 -3 -4 -3 -2 -2 -2 -2 -2 -2 -0 0 0 0 0 0 0 -0 -0 -0
-8 -7 -7 -7 -7 -7 -7 -7 -7 -7 -7 -7 -6 -6 -5 -4 -4 -3 -3 -2 -3 -3 -3 -3 -3 -3 -2 -2 -2 -0 0 0 0 0 0 -0 -0 -0
-8 -8 -8 -7 -8 -7 -7 -7 -7 -7 -6 -6 -5 -5 -4 -4 -4 -3 -3 -3 -2 -2 -2 -2 -3 -3 -3 -3 -2 -1 -1 -0 -0 -1 -1 -1 -1 -1
-9 -8 -8 -8 -8 -7 -7 -7 -6 -6 -6 -6 -6 -5 -5 -4 -4 -3 -3 -2 -3 -3 -2 -2 -2 -2 -3 -3 -2 -2 -1 -1 -1 -1 -1 -1 -2 -1
-9 -8 -9 -9 -8 -7 -7 -7 -7 -7 -7 -7 -6 -6 -5 -5 -4 -4 -3 -2 -2 -2 -2 -2 -2 -2 -2 -3 -3 -2 -2 -2 -1 -1 -2 -2 -1 -1
-9 -9 -9 -9 -9 -8 -8 -8 -8 -7 -7 -7 -6 -6 -6 -5 -5 -4 -3 -2 -2 -2 -1 -1 -2 -3 -3 -3 -3 -3 -3 -2 -1 -1 -1 -2 -2 -1
-10 -9 -9 -9 -9 -9 -8 -8 -8 -8 -8 -7 -7 -6 -6 -6 -5 -4 -4 -4 -3 -3 -2 -2 -2 -2 -3 -3 -2 -3 -4 -3 -3 -2 -2 -2 -2 -2
-10 -10 -9 -9 -9 -9 -9 -9 -9 -8 -8 -8 -7 -7 -6 -6 -5 -5 -5 -5 -4 -3 -3 -3 -4 -4 -4 -4 -3 -4 -4 -4 -4 -4 -3 -3 -3 -3
-10 -10 -10 -10 -10 -10 -10 -10 -9 -9 -9 -9 -8 -8 -7 -6 -6 -6 -5 -5 -5 -4 -4 -4 -4 -4 -4 -4 -4 -6 -5 -5 -5 -5 -5 -4 -3 -3
-11 -11 -10 -10 -11 -11 -11 -10 -10 -10 -10 -10 -9 -9 -8 -7 -6 -6 -6 -5 -5 -5 -5 -4 -4 -4 -4 -4 -4 -4 -5 -5 -5 -5 -5 -5 -5 -5
-11 -11 -11 -11 -11 -11 -11 -11 -11 -11 -11 -11 -10 -10 -9 -8 -7 -6 -6 -6 -6 -6 -6 -6 -4 -4 -4 -4 -4 -5 -5 -5 -5 -6 -6 -5 -6 -6

GFSNE_925_temp_009.txt.gz
Temp
2 3 2 2 2 1 1 1 1 2 2 3 3 4 5 5 5 3 3 3 3 4 6 7 7 7 7 7 7 7 8 8 8 8 8 8 9 9
3 2 2 2 1 1 0 -0 0 1 1 3 3 4 5 5 5 5 3 2 2 3 4 6 7 7 7 7 7 6 7 7 7 7 7 8 8 8
2 2 1 1 2 2 2 2 2 1 -0 1 3 3 4 4 5 5 4 3 2 3 5 7 7 7 6 6 6 6 6 6 6 6 7 7 7 6
0 0 0 0 0 1 1 2 2 2 2 1 1 1 2 2 3 4 4 4 4 3 5 6 7 7 7 6 6 6 5 5 5 6 6 6 6 6
-1 -1 -1 -1 -1 -1 -0 0 1 0 1 -0 -1 0 1 1 2 2 3 4 4 4 5 6 6 6 6 6 6 5 5 5 5 5 5 5 5 5
-2 -3 -3 -3 -2 -2 -2 -1 0 -0 -0 -1 -1 -1 -1 -0 1 1 1 1 2 3 4 5 5 5 5 5 5 5 5 5 4 4 4 4 4 4
-3 -4 -4 -4 -3 -3 -2 -2 -1 -1 -1 -1 -2 -2 -2 -1 -1 -1 -2 -1 0 1 2 3 3 3 4 4 4 4 4 4 3 3 3 3 3 3
-5 -5 -5 -5 -4 -4 -3 -3 -3 -3 -3 -2 -2 -3 -3 -3 -2 -3 -3 -2 -3 0 -0 0 1 1 2 2 3 3 3 3 2 2 2 3 3 2
-5 -5 -6 -5 -5 -5 -4 -4 -4 -4 -4 -3 -4 -4 -4 -3 -3 -3 -4 -3 -3 -2 -1 -1 -0 0 1 1 1 1 2 2 2 1 2 2 2 2
-6 -6 -6 -6 -6 -5 -5 -5 -4 -4 -4 -4 -4 -3 -3 -3 -3 -3 -4 -4 -4 -3 -2 -3 -1 -1 0 0 0 0 0 1 1 1 1 1 1 1
-7 -7 -7 -7 -6 -6 -6 -6 -6 -5 -5 -4 -4 -4 -4 -4 -4 -4 -4 -4 -4 -4 -3 -3 -2 -2 -1 -1 -0 -0 0 0 1 1 0 1 1 1
-8 -8 -7 -7 -6 -6 -6 -6 -7 -6 -6 -5 -5 -5 -4 -4 -4 -4 -4 -4 -4 -4 -3 -3 -3 -2 -2 -1 -0 0 0 0 0 0 0 -0 -0 -0
-8 -8 -8 -8 -7 -7 -6 -7 -7 -7 -6 -7 -6 -6 -6 -5 -5 -4 -4 -4 -4 -4 -3 -3 -2 -2 -2 -2 -1 -1 -0 -0 -0 0 0 0 0 -0
-9 -9 -8 -7 -7 -7 -7 -7 -7 -7 -7 -7 -7 -6 -6 -5 -4 -4 -4 -4 -3 -3 -3 -3 -4 -4 -3 -3 -3 -2 -1 -1 -0 0 -0 -0 -0 -0
-9 -9 -8 -8 -8 -7 -7 -7 -7 -6 -6 -6 -6 -6 -6 -5 -5 -4 -4 -4 -3 -3 -3 -3 -3 -3 -3 -3 -3 -3 -2 -1 -1 -1 -1 -0 -1 -1
-9 -9 -9 -9 -9 -8 -8 -8 -7 -7 -7 -7 -7 -6 -6 -5 -5 -5 -4 -4 -3 -3 -3 -3 -3 -3 -3 -3 -3 -4 -3 -2 -1 -1 -1 -1 -1 -1
-9 -9 -9 -9 -9 -9 -9 -8 -8 -8 -8 -7 -7 -7 -6 -6 -5 -5 -4 -3 -3 -3 -2 -2 -2 -2 -3 -3 -3 -3 -3 -3 -2 -2 -2 -1 -1 -2
-10 -10 -10 -10 -10 -9 -9 -9 -9 -8 -8 -8 -7 -7 -7 -6 -6 -5 -4 -4 -4 -4 -3 -2 -2 -3 -3 -3 -3 -3 -3 -3 -3 -2 -2 -3 -3 -2
-10 -10 -10 -10 -10 -10 -10 -10 -10 -9 -9 -8 -8 -8 -7 -6 -6 -5 -5 -5 -5 -4 -4 -4 -4 -3 -3 -4 -4 -4 -4 -4 -3 -3 -3 -3 -3 -3
-10 -10 -10 -10 -11 -11 -11 -11 -10 -10 -10 -9 -9 -9 -8 -7 -6 -6 -6 -6 -5 -5 -4 -4 -4 -4 -5 -6 -4 -4 -4 -4 -4 -4 -4 -4 -4 -3
-11 -11 -11 -11 -11 -11 -11 -11 -11 -11 -11 -10 -10 -10 -9 -8 -7 -6 -6 -6 -6 -6 -6 -5 -5 -4 -4 -4 -5 -5 -5 -4 -5 -5 -5 -5 -5 -4
-11 -11 -11 -12 -12 -12 -12 -12 -12 -12 -12 -12 -11 -10 -10 -9 -8 -7 -7 -7 -6 -6 -6 -5 -4 -4 -4 -4 -5 -5 -5 -5 -5 -5 -5 -5 -5 -6
-11 -11 -12 -12 -12 -12 -12 -13 -13 -13 -13 -12 -12 -11 -10 -10 -9 -8 -7 -7 -7 -7 -7 -7 -5 -5 -5 -4 -5 -5 -5 -5 -5 -5 -5 -5 -6 -6

GFSNE_925_temp_012.txt.gz
Temp
3 2 2 2 1 0 0 -0 -1 -0 1 1 2 3 3 4 4 4 4 3 2 2 3 3 4 4 6 7 8 8 8 8 8 8 8 8 8 8
1 1 1 1 1 1 1 0 -0 -1 -0 0 1 2 2 3 3 3 3 4 1 1 2 2 4 4 3 4 6 7 7 7 7 7 7 7 7 7
1 0 0 -0 -1 -1 -1 -0 -0 0 0 1 1 1 2 2 3 3 3 3 2 0 0 1 2 3 4 5 5 5 6 6 6 6 6 6 6 6
-1 -1 -1 -2 -2 -2 -2 -2 -1 -1 -0 -1 -0 0 1 1 1 2 2 3 3 3 0 1 1 2 3 5 5 5 5 6 6 6 6 6 6 6
-2 -2 -3 -3 -4 -4 -3 -3 -3 -2 -1 -1 -1 -1 -0 0 0 0 1 1 2 2 3 2 3 2 3 5 5 5 6 5 5 5 5 5 5 5
-3 -3 -4 -4 -5 -5 -4 -4 -3 -3 -2 -2 -2 -2 -1 -1 -1 -1 -1 -1 0 1 2 3 3 4 4 5 5 4 4 4 4 4 4 4 4 3
-4 -4 -5 -5 -5 -5 -4 -5 -4 -4 -4 -3 -3 -3 -2 -2 -2 -2 -3 -3 -2 -1 0 1 1 2 3 3 4 5 4 4 4 3 3 3 3 3
-5 -5 -5 -6 -6 -6 -6 -5 -5 -5 -5 -4 -4 -4 -3 -3 -3 -3 -3 -4 -4 -2 -1 -0 -0 0 1 1 2 3 3 3 3 2 2 3 3 3
-6 -6 -6 -6 -7 -6 -6 -6 -5 -5 -5 -4 -5 -4 -4 -3 -3 -3 -4 -4 -4 -3 -3 -2 -1 -1 -0 0 1 1 2 2 1 2 1 2 2 2
-7 -7 -7 -7 -7 -7 -6 -6 -6 -6 -5 -5 -5 -4 -4 -4 -4 -4 -4 -4 -4 -4 -3 -4 -2 -2 -1 -1 -0 -0 0 1 1 1 1 1 1 1
-8 -8 -7 -8 -7 -6 -6 -6 -6 -6 -6 -5 -5 -5 -5 -5 -4 -4 -5 -4 -4 -4 -4 -4 -3 -3 -2 -2 -1 -1 -0 0 0 0 1 1 1 1
-8 -8 -8 -8 -8 -7 -6 -7 -7 -7 -7 -7 -6 -6 -5 -5 -5 -5 -5 -5 -5 -5 -3 -4 -3 -3 -3 -2 -1 -1 -1 -1 -1 -0 -0 -0 0 -0
-9 -9 -8 -8 -7 -7 -7 -7 -7 -6 -6 -7 -7 -7 -6 -6 -5 -5 -5 -5 -5 -5 -4 -3 -3 -3 -3 -2 -2 -1 -1 -1 -1 -0 -0 -0 -0 -0
-9 -9 -8 -8 -8 -8 -7 -7 -7 -7 -6 -7 -7 -7 -6 -5 -5 -5 -5 -4 -5 -5 -4 -4 -4 -4 -4 -3 -3 -2 -2 -2 -1 -1 -0 0 -0 -0
-9 -9 -9 -9 -9 -8 -8 -8 -8 -8 -7 -7 -7 -6 -6 -6 -5 -5 -4 -4 -4 -4 -4 -4 -4 -4 -4 -4 -3 -3 -2 -2 -2 -1 -1 -1 -1 -1
-9 -9 -9 -9 -9 -9 -9 -9 -8 -8 -8 -8 -7 -7 -6 -6 -5 -5 -4 -4 -4 -4 -3 -3 -4 -4 -4 -4 -4 -3 -3 -3 -2 -2 -2 -2 -1 -1
-9 -10 -10 -10 -10 -10 -10 -9 -9 -9 -8 -8 -8 -7 -7 -6 -6 -5 -4 -4 -4 -4 -3 -2 -2 -3 -3 -3 -4 -4 -3 -3 -3 -3 -3 -2 -2 -2
-10 -10 -11 -10 -11 -11 -11 -10 -10 -9 -9 -9 -9 -8 -8 -7 -6 -5 -5 -5 -5 -5 -4 -4 -3 -3 -3 -3 -3 -3 -3 -4 -4 -3 -3 -3 -3 -3
-11 -11 -11 -11 -11 -11 -11 -11 -11 -11 -10 -10 -10 -9 -8 -7 -6 -6 -6 -5 -5 -5 -5 -4 -4 -3 -3 -3 -4 -4 -4 -4 -4 -4 -3 -3 -3 -3
-11 -11 -11 -11 -12 -12 -12 -12 -12 -12 -11 -11 -10 -10 -9 -9 -8 -7 -7 -6 -6 -6 -5 -5 -5 -4 -5 -7 -5 -4 -5 -5 -4 -4 -4 -4 -4 -4
-11 -11 -12 -12 -12 -12 -12 -12 -13 -12 -12 -12 -11 -11 -10 -10 -9 -8 -7 -7 -7 -7 -7 -6 -5 -4 -4 -5 -6 -5 -5 -5 -5 -5 -5 -6 -5 -5
-10 -11 -11 -12 -12 -12 -12 -13 -13 -13 -13 -12 -12 -11 -11 -10 -10 -9 -8 -8 -8 -7 -7 -6 -5 -5 -4 -4 -5 -5 -5 -5 -5 -5 -5 -5 -5 -8
-10 -11 -11 -12 -12 -12 -13 -13 -13 -13 -13 -13 -12 -12 -11 -11 -10 -10 -9 -9 -8 -8 -7 -7 -6 -5 -6 -5 -5 -5 -5 -5 -5 -5 -5 -6 -6 -6

GFSNE_925_temp_015.txt.gz
Temp
2 2 1 1 1 0 0 -0 -1 -1 -1 1 1 2 2 2 2 3 3 3 3 3 3 2 3 4 5 5 6 7 8 8 9 9 9 9 9 9
2 1 0 0 0 -0 -1 -1 -1 -1 -1 0 0 1 1 2 2 2 3 2 2 3 3 2 2 2 4 5 5 5 6 7 7 8 8 8 8 8
0 -0 -1 -1 -2 -2 -2 -2 -2 -2 -2 -1 -0 0 1 1 2 2 2 2 2 2 2 3 0 1 2 2 3 4 4 6 6 7 7 7 7 7
-1 -2 -2 -2 -3 -3 -4 -4 -4 -4 -3 -3 -2 -0 0 0 0 1 1 1 2 1 1 1 0 -0 0 1 1 3 3 3 5 6 6 6 6 6
-2 -3 -3 -4 -4 -5 -5 -5 -5 -5 -4 -4 -3 -2 -1 -1 -1 -0 -0 0 0 1 1 0 0 -0 -0 0 1 1 3 2 4 4 5 4 5 5
-3 -4 -4 -5 -5 -5 -5 -5 -5 -5 -5 -4 -4 -4 -2 -2 -2 -2 -2 -1 -1 -0 0 0 0 0 0 0 1 2 3 3 3 4 4 4 4 4
-4 -4 -5 -6 -5 -5 -5 -6 -6 -6 -5 -5 -4 -4 -4 -3 -3 -2 -3 -3 -2 -1 -1 -0 0 -0 -0 -0 0 1 2 3 3 3 3 4 4 4
-5 -6 -6 -7 -6 -6 -6 -6 -6 -6 -6 -5 -5 -4 -5 -3 -3 -3 -3 -4 -5 -2 -3 -2 -1 -0 0 0 -0 1 1 2 3 3 3 3 3 3
-7 -7 -7 -7 -7 -7 -7 -7 -6 -6 -6 -6 -6 -5 -5 -5 -4 -4 -4 -4 -4 -3 -3 -3 -3 -2 -1 -0 0 1 1 1 2 2 2 2 2 2
-8 -8 -8 -8 -8 -7 -7 -7 -6 -6 -6 -6 -6 -5 -5 -5 -5 -4 -4 -5 -5 -5 -4 -4 -4 -3 -2 -1 -1 -0 0 1 1 1 1 1 1 1
-8 -8 -8 -8 -8 -7 -7 -7 -6 -6 -6 -6 -6 -6 -6 -5 -5 -5 -5 -5 -4 -4 -4 -5 -4 -3 -3 -2 -1 -1 -0 -0 0 0 0 0 0 0
-8 -9 -9 -8 -7 -7 -7 -7 -7 -7 -7 -6 -6 -6 -6 -6 -5 -5 -5 -6 -5 -5 -4 -4 -4 -4 -4 -2 -1 -1 -1 -1 -1 -0 -0 0 0 -0
-9 -9 -9 -8 -8 -7 -7 -7 -7 -7 -7 -7 -7 -7 -7 -6 -6 -5 -5 -6 -6 -6 -4 -3 -3 -3 -3 -3 -2 -2 -2 -2 -1 -1 -1 -0 -0 -0
-9 -9 -9 -8 -8 -8 -8 -8 -8 -8 -7 -7 -7 -6 -6 -6 -6 -5 -5 -5 -5 -5 -5 -5 -4 -4 -4 -4 -4 -3 -2 -2 -2 -1 -1 -0 -0 -0
-9 -9 -9 -9 -9 -9 -9 -9 -8 -8 -8 -8 -7 -7 -7 -6 -6 -5 -5 -5 -4 -5 -5 -5 -5 -5 -4 -4 -4 -3 -3 -2 -2 -2 -1 -1 -1 -1
-9 -9 -10 -10 -10 -10 -9 -9 -9 -9 -9 -9 -8 -7 -7 -6 -6 -5 -5 -5 -4 -4 -4 -4 -4 -4 -5 -5 -5 -4 -4 -3 -2 -2 -2 -2 -2 -2
-10 -10 -10 -11 -11 -11 -10 -10 -10 -10 -10 -10 -9 -8 -8 -7 -6 -5 -5 -5 -4 -4 -4 -4 -4 -4 -4 -4 -4 -4 -4 -4 -3 -3 -3 -3 -2 -2
-10 -11 -11 -11 -12 -11 -12 -11 -11 -11 -11 -10 -10 -10 -9 -8 -7 -6 -6 -5 -5 -5 -5 -5 -4 -4 -4 -4 -4 -3 -4 -4 -4 -4 -4 -4 -3 -2
-11 -11 -12 -12 -12 -12 -12 -12 -13 -12 -11 -11 -11 -10 -10 -9 -8 -7 -7 -6 -6 -6 -5 -5 -5 -3 -3 -3 -4 -4 -4 -5 -5 -4 -5 -5 -4 -3
-11 -12 -12 -12 -12 -12 -13 -13 -13 -13 -12 -12 -11 -11 -10 -10 -9 -8 -8 -8 -7 -6 -6 -5 -5 -5 -6 -8 -6 -5 -5 -6 -5 -4 -4 -4 -4 -4
-10 -11 -12 -12 -12 -12 -13 -13 -13 -13 -13 -12 -12 -11 -11 -11 -10 -10 -9 -8 -8 -8 -7 -6 -6 -5 -5 -5 -7 -5 -5 -5 -5 -5 -5 -5 -5 -6
-10 -10 -11 -12 -12 -12 -12 -13 -12 -12 -12 -12 -12 -12 -11 -11 -11 -11 -10 -9 -9 -9 -8 -7 -6 -5 -5 -5 -6 -6 -6 -5 -5 -6 -6 -6 -6 -8
-9 -10 -11 -11 -12 -12 -12 -12 -13 -13 -13 -13 -13 -12 -12 -12 -11 -11 -10 -10 -9 -9 -9 -8 -7 -6 -6 -6 -6 -6 -6 -5 -5 -5 -5 -6 -6 -6

GFSNE_925_temp_018.txt.gz
Temp
3 2 1 1 0 -0 -1 -2 -2 -3 -2 -1 -1 0 1 1 2 2 2 2 2 2 2 3 3 3 4 4 4 8 7 8 9 10 9 9 10 9
2 1 0 -0 -1 -1 -2 -2 -3 -4 -3 -2 -2 -1 -0 0 1 1 2 2 2 2 2 2 2 2 3 4 3 5 6 7 8 9 9 9 9 10
0 -0 -1 -1 -2 -2 -3 -3 -4 -4 -4 -4 -3 -3 -2 -1 0 1 1 1 1 2 1 1 1 1 3 2 3 3 4 4 5 6 8 8 8 8
-1 -1 -2 -2 -3 -4 -4 -5 -5 -5 -6 -5 -5 -4 -4 -3 -1 0 0 0 0 1 1 1 1 0 1 1 1 2 3 4 4 5 6 6 6 6
-2 -3 -3 -4 -5 -5 -5 -6 -6 -6 -6 -6 -5 -4 -4 -4 -2 -1 -1 -1 -1 -0 0 0 0 -0 -0 2 0 0 1 2 3 4 5 5 5 6
-3 -4 -4 -5 -5 -6 -6 -6 -6 -6 -6 -6 -5 -4 -5 -3 -3 -3 -2 -1 -1 -1 -0 -0 -0 -1 -1 1 -0 0 1 1 2 3 4 4 5 5
-4 -5 -6 -6 -6 -6 -6 -6 -7 -7 -6 -6 -5 -5 -4 -4 -4 -4 -3 -2 -2 -2 -1 -1 -1 -1 -1 -1 -0 0 0 0 1 2 2 3 4 4
-6 -7 -7 -7 -7 -7 -7 -7 -7 -6 -6 -6 -6 -5 -5 -5 -5 -6 -5 -4 -4 -3 -3 -2 -2 -1 -2 -2 -1 0 0 0 -0 -0 2 3 3 4
-7 -8 -8 -8 -8 -8 -8 -7 -7 -6 -6 -6 -6 -6 -6 -5 -5 -5 -6 -5 -5 -4 -4 -4 -3 -3 -2 -1 -1 -1 0 -0 0 -0 1 2 3 3
-8 -8 -9 -9 -8 -8 -7 -7 -7 -7 -6 -6 -6 -6 -6 -6 -6 -6 -5 -5 -5 -5 -5 -4 -4 -3 -2 -2 -1 -1 -0 0 -0 -0 0 1 2 2
-8 -8 -8 -8 -8 -7 -7 -7 -7 -6 -7 -6 -6 -6 -6 -6 -6 -5 -6 -6 -5 -4 -5 -5 -5 -4 -3 -2 -2 -1 -0 -1 -1 -0 -0 1 1 1
-8 -9 -9 -8 -8 -7 -7 -8 -7 -7 -7 -7 -6 -6 -7 -7 -6 -6 -6 -6 -6 -6 -4 -5 -4 -4 -4 -3 -2 -1 -1 -1 -0 -0 -0 -0 0 0
-9 -9 -9 -9 -8 -8 -8 -8 -8 -8 -8 -8 -7 -7 -7 -6 -6 -6 -6 -6 -6 -6 -5 -4 -4 -4 -3 -3 -3 -2 -2 -2 -2 -1 -1 -0 -0 -0
-9 -10 -9 -9 -9 -9 -9 -8 -9 -8 -8 -8 -8 -7 -7 -7 -6 -6 -6 -6 -6 -6 -6 -5 -5 -4 -4 -5 -4 -3 -3 -2 -2 -1 -1 -1 -1 -1
-10 -10 -10 -10 -10 -10 -10 -10 -9 -9 -9 -9 -9 -8 -8 -7 -6 -6 -5 -5 -5 -5 -5 -5 -6 -5 -5 -5 -4 -4 -3 -3 -2 -2 -2 -1 -1 -1
-10 -10 -10 -10 -10 -10 -10 -10 -10 -11 -10 -10 -10 -9 -8 -7 -6 -6 -5 -5 -5 -4 -4 -4 -5 -5 -5 -5 -5 -5 -5 -4 -3 -3 -3 -2 -2 -2
-10 -10 -10 -11 -11 -11 -11 -11 -11 -11 -11 -11 -10 -10 -9 -8 -7 -6 -6 -5 -5 -5 -4 -4 -4 -5 -5 -5 -4 -4 -4 -5 -4 -4 -4 -3 -3 -2
-10 -11 -11 -12 -12 -12 -12 -12 -12 -12 -12 -11 -11 -11 -10 -9 -8 -7 -7 -6 -6 -6 -6 -5 -4 -5 -4 -4 -4 -4 -4 -4 -4 -4 -4 -4 -4 -3
-10 -11 -12 -12 -12 -12 -13 -13 -13 -13 -12 -12 -12 -11 -11 -9 -9 -9 -8 -8 -7 -7 -6 -6 -5 -4 -3 -3 -5 -4 -4 -4 -5 -5 -5 -5 -5 -4
-10 -11 -11 -12 -12 -13 -13 -13 -13 -12 -12 -12 -12 -12 -11 -11 -10 -10 -9 -9 -8 -8 -7 -6 -6 -6 -5 -5 -5 -6 -5 -6 -5 -5 -5 -5 -4 -4
-10 -10 -11 -11 -12 -12 -13 -13 -13 -13 -13 -12 -12 -12 -12 -11 -11 -11 -10 -9 -9 -9 -9 -8 -7 -6 -6 -6 -6 -6 -6 -6 -6 -5 -5 -5 -6 -6
-9 -10 -10 -11 -11 -12 -12 -13 -13 -13 -12 -12 -12 -12 -12 -12 -12 -12 -11 -11 -10 -10 -9 -8 -7 -6 -6 -6 -6 -7 -6 -6 -6 -6 -6 -6 -6 -5
-8 -9 -10 -10 -11 -11 -12 -12 -13 -13 -13 -13 -13 -13 -13 -12 -12 -12 -11 -11 -10 -10 -10 -9 -8 -7 -7 -7 -6 -7 -6 -6 -6 -6 -6 -6 -6 -6

GFSNE_925_temp_021.txt.gz
Temp
2 2 1 1 0 -0 -1 -1 -1 -1 1 1 1 1 0 0 0 1 1 1 2 2 2 2 2 2 3 3 4 5 6 7 9 9 10 10 10 10
1 1 1 -0 -1 -1 -1 -2 -2 -2 -0 -1 -1 -1 -1 -1 -1 -0 0 1 1 1 2 2 2 2 2 3 3 4 5 6 8 9 9 10 10 10
0 -0 -1 -1 -1 -1 -2 -2 -2 -2 -2 -2 -2 -2 -2 -2 -2 -2 -1 1 1 0 1 1 1 1 2 2 2 3 4 4 5 8 8 9 9 9
-0 -1 -1 -2 -2 -2 -3 -3 -3 -3 -3 -3 -3 -3 -3 -2 -2 -2 -1 0 1 1 0 0 1 1 1 1 2 2 3 3 4 5 7 8 8 9
-2 -2 -2 -3 -3 -3 -3 -4 -4 -4 -4 -4 -4 -3 -3 -3 -3 -2 -1 -1 -0 -0 -1 -0 -0 0 -1 0 0 1 2 3 3 3 6 6 6 7
-3 -3 -4 -4 -4 -4 -4 -5 -5 -5 -5 -5 -4 -4 -4 -3 -3 -3 -2 -1 -0 -0 -1 -1 -0 -0 -1 -1 -0 1 1 2 2 3 4 4 5 5
-4 -5 -5 -6 -7 -6 -6 -6 -6 -6 -5 -5 -4 -4 -3 -3 -3 -3 -3 -3 -2 -1 -1 -1 -0 -0 -1 -0 -1 -0 1 1 2 1 3 4 5 4
-5 -5 -6 -7 -6 -7 -7 -7 -7 -6 -6 -5 -5 -4 -4 -4 -4 -4 -4 -4 -1 -1 -2 -1 -2 -1 -1 -2 -1 -1 0 0 0 0 0 3 3 4
-6 -6 -6 -6 -7 -7 -6 -6 -6 -6 -6 -6 -5 -5 -4 -4 -4 -4 -4 -4 -3 -3 -3 -2 -2 -2 -2 -1 -2 -2 -1 -0 -0 0 0 0 1 3
-7 -7 -7 -7 -7 -7 -7 -6 -6 -6 -6 -6 -6 -5 -5 -5 -5 -5 -5 -4 -4 -4 -3 -3 -2 -3 -2 -2 -2 -2 -2 -1 -0 -0 -0 -0 0 2
-7 -7 -7 -7 -8 -7 -7 -7 -6 -6 -6 -6 -6 -6 -6 -6 -6 -6 -5 -4 -3 -2 -2 -4 -4 -3 -3 -2 -2 -2 -3 -1 -0 -0 -0 -0 -0 1
-7 -7 -8 -8 -8 -8 -7 -7 -7 -6 -7 -7 -6 -6 -6 -6 -6 -6 -5 -5 -4 -3 -3 -4 -3 -2 -1 -3 -3 -2 -2 -2 -1 -1 -1 -1 0 0
-7 -8 -8 -9 -8 -8 -8 -8 -8 -8 -8 -7 -7 -6 -5 -5 -5 -5 -5 -5 -4 -3 -3 -3 -3 -2 -2 -1 -2 -3 -3 -2 -2 -1 -1 -0 -0 -0
-8 -9 -9 -9 -9 -10 -9 -9 -10 -9 -8 -8 -7 -6 -6 -6 -5 -5 -5 -5 -5 -4 -4 -4 -4 -3 -2 -2 -1 -2 -3 -3 -2 -2 -2 -1 -1 -1
-9 -9 -10 -10 -10 -10 -10 -10 -10 -10 -9 -8 -8 -7 -7 -7 -6 -6 -5 -5 -5 -5 -5 -5 -5 -5 -4 -3 -2 -2 -2 -2 -3 -2 -2 -2 -1 -2
-9 -10 -10 -10 -10 -10 -10 -10 -10 -11 -11 -10 -9 -8 -8 -7 -6 -6 -5 -5 -4 -4 -4 -5 -5 -5 -4 -4 -3 -3 -3 -2 -3 -3 -3 -2 -3 -2
-9 -10 -10 -10 -10 -10 -10 -10 -11 -11 -11 -10 -10 -9 -8 -7 -6 -6 -6 -5 -4 -4 -4 -4 -4 -5 -5 -4 -4 -3 -3 -3 -3 -3 -4 -3 -2 -2
-9 -10 -10 -11 -11 -10 -10 -10 -11 -12 -12 -11 -10 -10 -9 -8 -8 -6 -6 -6 -5 -5 -5 -5 -4 -4 -5 -5 -4 -3 -3 -3 -4 -4 -4 -3 -2 -2
-9 -9 -10 -11 -11 -11 -11 -11 -11 -12 -13 -12 -11 -11 -10 -9 -8 -7 -7 -6 -6 -5 -5 -5 -4 -3 -2 -1 -4 -4 -3 -3 -4 -4 -4 -4 -3 -3
-9 -9 -10 -10 -11 -11 -11 -11 -12 -12 -12 -13 -12 -12 -12 -11 -9 -9 -8 -8 -7 -6 -5 -5 -5 -5 -4 -3 -3 -5 -5 -5 -5 -5 -4 -4 -4 -4
-8 -9 -9 -10 -10 -11 -12 -13 -13 -13 -13 -13 -13 -13 -13 -12 -10 -10 -10 -9 -9 -7 -6 -6 -6 -7 -7 -6 -4 -4 -6 -6 -6 -5 -5 -4 -4 -4
-8 -9 -9 -10 -10 -11 -12 -12 -12 -12 -13 -13 -13 -13 -13 -13 -12 -11 -11 -10 -9 -9 -8 -7 -7 -6 -6 -4 -4 -5 -5 -6 -6 -6 -6 -5 -4 -2
-8 -8 -9 -10 -10 -11 -11 -12 -12 -13 -13 -13 -13 -13 -13 -13 -13 -12 -11 -11 -10 -10 -9 -8 -8 -7 -6 -6 -6 -5 -6 -6 -5 -5 -6 -6 -6 -6

GFSNE_925_temp_024.txt.gz
Temp
4 4 4 4 3 3 3 2 2 2 3 3 3 3 2 2 1 1 1 1 1 1 1 1 2 2 2 3 3 3 4 4 4 7 8 9 10 10
4 3 3 3 3 3 2 2 2 1 3 2 2 2 1 1 1 0 0 0 0 0 1 1 1 1 2 2 3 3 3 2 3 6 7 9 9 10
3 3 3 2 2 2 2 1 1 1 2 1 1 1 0 -0 -0 -1 -0 0 1 1 1 1 1 1 1 2 2 2 3 2 3 4 6 8 9 9
3 2 2 2 1 1 1 1 0 0 -1 -1 -1 -1 -1 -1 -1 -1 -1 -0 1 2 1 0 0 0 1 1 1 2 2 2 2 3 5 7 8 9
1 1 1 0 -0 -0 -1 -1 -1 -2 -2 -2 -2 -2 -2 -2 -2 -1 -1 -1 0 1 1 0 0 0 0 1 1 1 1 1 2 3 3 5 7 8
0 -0 -1 -1 -2 -3 -3 -2 -3 -3 -3 -3 -3 -3 -2 -2 -1 -2 -1 -1 -1 -0 1 1 1 0 -0 0 0 0 0 0 1 2 2 3 6 7
-0 -1 -1 -3 -5 -6 -5 -5 -5 -5 -4 -4 -3 -3 -2 -2 -2 -2 -2 -1 -1 -1 -1 0 1 1 1 -0 0 0 -0 -0 0 1 2 2 5 3
-1 -2 -2 -3 -4 -5 -6 -6 -6 -5 -5 -5 -4 -3 -3 -2 -2 -2 -2 -2 -1 -1 -3 -0 -0 1 1 1 0 -0 -0 -1 0 1 2 2 1 0
-2 -3 -3 -3 -4 -5 -5 -6 -5 -5 -6 -5 -5 -4 -4 -3 -3 -3 -3 -2 -2 -2 -3 -1 -1 -1 -0 1 0 -1 -1 -1 -0 1 1 1 2 2
-3 -4 -4 -4 -4 -7 -6 -6 -5 -4 -4 -4 -5 -5 -4 -4 -4 -4 -4 -3 -3 -2 -2 -1 -1 -1 -1 -1 -0 -1 -1 -1 -1 -0 0 2 1 1
-4 -4 -5 -5 -6 -8 -7 -6 -5 -4 -5 -6 -6 -6 -6 -6 -5 -5 -4 -3 -3 -2 -1 -1 -1 -1 -1 -1 -1 -1 -1 -1 -1 -1 -1 -0 -0 -0
-4 -4 -5 -7 -8 -8 -8 -7 -6 -6 -6 -6 -6 -5 -4 -4 -5 -5 -4 -3 -2 -2 -2 -1 -1 -2 -1 -0 -0 -0 -1 -1 -2 -1 -1 -1 -1 0
-4 -4 -5 -7 -8 -8 -9 -8 -8 -8 -7 -7 -6 -5 -4 -4 -4 -4 -5 -4 -3 -2 -1 -2 -1 -1 -1 -1 -1 -0 -1 -1 -2 -1 -1 -1 -1 -1
-6 -5 -7 -8 -9 -9 -9 -9 -9 -9 -7 -7 -6 -6 -5 -5 -5 -5 -4 -4 -4 -3 -2 -4 -2 -2 -2 -1 -0 -1 -1 -1 -1 -1 -1 -1 -1 -1
-7 -7 -9 -9 -9 -8 -8 -9 -9 -8 -8 -7 -7 -6 -6 -6 -5 -5 -5 -4 -4 -4 -4 -3 -3 -3 -2 -2 -1 -1 -1 -1 -1 -0 -1 -1 -0 -0
-6 -7 -8 -8 -8 -8 -7 -7 -8 -8 -9 -8 -7 -7 -6 -6 -5 -5 -5 -4 -3 -3 -4 -4 -4 -4 -3 -2 -2 -2 -1 -1 -1 -1 -1 -1 -0 0
-7 -7 -6 -7 -6 -6 -6 -7 -7 -8 -8 -8 -8 -7 -7 -6 -6 -5 -5 -4 -3 -3 -3 -3 -4 -4 -4 -3 -2 -2 -2 -2 -2 -2 -2 -1 -1 -0
-7 -6 -6 -7 -7 -7 -7 -7 -7 -8 -9 -9 -8 -8 -8 -7 -7 -6 -5 -5 -4 -4 -3 -3 -3 -4 -4 -4 -4 -2 -1 -1 -2 -2 -2 -1 -1 -1
-7 -5 -6 -6 -7 -7 -7 -7 -7 -8 -10 -9 -9 -9 -8 -8 -7 -6 -6 -6 -5 -4 -4 -4 -3 -3 -1 -1 -3 -4 -3 -2 -2 -2 -2 -3 -2 -2
-7 -5 -6 -6 -6 -7 -7 -7 -8 -9 -9 -9 -9 -9 -9 -8 -7 -7 -7 -7 -6 -5 -4 -3 -4 -4 -4 -3 -2 -5 -4 -3 -3 -3 -3 -3 -3 -3
-4 -4 -5 -6 -6 -7 -7 -8 -9 -9 -10 -10 -9 -10 -10 -9 -8 -8 -7 -7 -7 -5 -5 -4 -5 -6 -5 -4 -3 -4 -5 -5 -4 -4 -4 -3 -3 -3
-5 -5 -5 -6 -6 -7 -8 -8 -9 -9 -9 -9 -10 -10 -10 -10 -9 -9 -8 -8 -7 -7 -6 -6 -6 -5 -4 -3 -3 -4 -4 -6 -5 -5 -5 -5 -4 -1
-5 -5 -5 -6 -7 -7 -8 -8 -8 -9 -9 -10 -10 -10 -10 -10 -9 -10 -9 -8 -8 -8 -7 -6 -6 -5 -4 -4 -4 -4 -4 -5 -5 -5 -6 -5 -5 -5

GFSNE_925_temp_027.txt.gz
Temp
4 4 4 5 4 4 4 4 4 3 3 4 4 4 4 3 3 2 2 2 1 1 1 1 0 1 1 2 1 2 2 2 2 3 4 4 5 7
5 4 5 4 3 3 3 4 4 3 4 3 4 3 2 2 1 1 1 1 0 1 1 1 1 1 1 1 1 1 2 2 2 2 3 3 4 6
5 4 3 3 3 3 3 3 3 3 4 3 2 1 1 0 0 -0 -0 0 0 1 1 1 1 1 1 1 1 1 2 2 2 2 2 2 4 6
3 3 3 3 2 3 2 2 2 2 2 2 1 -0 -1 -1 -1 -1 -1 -0 -0 -0 0 0 1 0 0 1 1 1 1 1 1 2 2 2 3 5
2 2 2 2 2 1 1 0 -0 0 -0 -1 -1 -1 -1 -1 -1 -1 -1 -0 -0 0 -0 -0 -0 0 1 0 1 1 1 1 0 1 0 1 3 4
2 2 1 1 0 -1 -2 -2 -2 -2 -2 -3 -2 -2 -2 -2 -2 -1 -1 -1 -1 0 0 0 -1 -2 -0 0 1 1 1 0 -1 -0 0 1 3 3
2 1 1 -0 -2 -4 -4 -4 -4 -4 -4 -4 -3 -3 -3 -2 -2 -1 -2 -1 -1 -1 -1 -1 -1 -0 1 1 0 0 -0 -0 -0 -0 1 1 2 4
1 0 -0 -1 -1 -3 -4 -5 -5 -5 -5 -4 -3 -3 -3 -2 -3 -3 -2 -2 -1 -1 -2 -2 -2 -2 1 1 -1 -1 0 0 -0 0 0 1 1 3
-0 -1 -1 -1 -2 -2 -4 -5 -5 -4 -4 -4 -4 -4 -4 -4 -3 -3 -3 -3 -2 -2 -2 -2 -2 -2 -0 1 0 -1 -0 -0 -1 -0 0 0 0 0
-1 -1 -1 -2 -3 -6 -6 -5 -4 -4 -3 -3 -4 -4 -5 -5 -4 -4 -4 -3 -3 -2 -1 -1 -1 -1 -1 -0 -0 -0 -0 -1 -1 -1 -0 -0 -0 -1
-2 -2 -2 -3 -4 -6 -7 -6 -5 -4 -4 -4 -5 -5 -5 -5 -5 -5 -4 -3 -3 -2 -2 -3 -2 -1 -1 -0 -1 -0 -0 -1 -1 -1 -1 -0 -1 -1
-2 -2 -3 -5 -6 -8 -8 -7 -6 -5 -6 -6 -6 -5 -4 -4 -4 -5 -4 -4 -3 -2 -2 -3 -1 -1 -0 -0 -1 -0 -0 -1 -1 -1 -1 -1 -0 0
-3 -3 -3 -5 -7 -8 -8 -8 -7 -8 -7 -6 -6 -5 -5 -4 -4 -4 -4 -4 -4 -3 -2 -3 -2 -1 -1 -1 -1 -1 0 -1 -1 -2 -2 -1 -0 -0
-5 -4 -5 -6 -8 -8 -8 -7 -8 -8 -6 -6 -6 -5 -5 -5 -5 -4 -4 -4 -4 -3 -3 -2 -2 -2 -1 -1 -0 -1 -0 -0 -1 -2 -2 -1 -1 -1
-5 -5 -6 -7 -7 -7 -6 -7 -7 -6 -7 -6 -6 -6 -6 -6 -5 -4 -4 -4 -4 -3 -2 -3 -2 -2 -2 -1 -1 -0 -0 0 -1 -1 -1 -1 -1 -1
-5 -5 -6 -6 -5 -5 -6 -5 -5 -6 -7 -6 -7 -6 -6 -6 -5 -5 -5 -4 -4 -3 -3 -3 -3 -3 -3 -2 -2 -1 -1 -0 -1 -0 -1 -1 -0 0
-5 -6 -5 -4 -4 -4 -4 -5 -5 -5 -6 -7 -7 -6 -6 -6 -6 -5 -5 -5 -4 -3 -3 -3 -3 -3 -4 -3 -2 -1 -1 -0 -1 -1 -1 -1 -0 -0
-6 -5 -4 -4 -5 -4 -4 -5 -5 -6 -6 -7 -7 -7 -7 -6 -6 -6 -5 -5 -4 -4 -3 -3 -3 -3 -3 -3 -3 -2 -1 -1 -1 -2 -2 -1 -1 -0
-6 -5 -4 -4 -5 -5 -4 -5 -5 -6 -7 -7 -7 -7 -7 -7 -6 -6 -6 -6 -5 -5 -4 -3 -3 -3 -2 -1 -4 -3 -3 -3 -1 -1 -2 -2 -1 -2
-6 -4 -4 -4 -4 -4 -4 -5 -6 -7 -7 -7 -8 -8 -8 -8 -7 -6 -6 -6 -6 -5 -4 -4 -4 -5 -5 -4 -2 -5 -4 -3 -2 -2 -2 -2 -3 -2
-4 -4 -3 -3 -4 -5 -5 -6 -7 -7 -8 -8 -8 -8 -8 -8 -8 -7 -7 -6 -6 -5 -5 -4 -5 -5 -5 -4 -3 -3 -5 -4 -4 -3 -3 -2 -2 -2
-5 -4 -3 -3 -4 -5 -6 -6 -7 -7 -7 -7 -8 -8 -8 -8 -8 -8 -8 -7 -6 -6 -6 -5 -5 -5 -4 -3 -3 -3 -4 -5 -5 -4 -4 -4 -4 -2
-4 -5 -5 -4 -5 -5 -6 -6 -7 -7 -7 -8 -8 -8 -9 -9 -8 -8 -8 -8 -7 -7 -7 -6 -5 -5 -4 -3 -4 -3 -4 -4 -4 -5 -6 -5 -5 -5

GFSNE_925_temp_030.txt.gz
Temp
5 5 4 3 3 3 3 3 2 0 1 3 3 3 3 3 2 1 1 1 0 0 0 0 0 1 1 1 1 1 2 2 2 2 2 2 3 4
4 4 4 4 3 3 3 3 2 2 1 3 3 2 2 1 0 0 -0 -0 -0 -0 -0 0 0 0 1 1 1 1 1 1 1 1 1 2 2 3
2 2 1 3 3 2 2 2 2 2 1 1 1 1 0 -1 -1 -1 -1 -1 -1 -0 -0 0 0 0 0 1 0 0 1 1 1 1 1 1 1 2
3 3 2 2 2 2 1 1 -0 -1 -0 -1 -1 -1 -2 -2 -1 -1 -1 -1 -1 -1 -0 -0 -0 -0 -0 0 0 0 1 1 1 1 0 0 0 1
2 2 2 2 1 1 -0 -2 -2 -2 -2 -3 -3 -3 -3 -2 -2 -2 -2 -1 -1 -1 -1 0 0 -0 -1 -1 -0 -0 0 0 1 0 -0 -0 0 1
2 2 2 1 0 -0 -2 -3 -3 -3 -4 -4 -4 -4 -3 -3 -3 -2 -2 -2 -2 -2 -1 -1 -1 -1 -1 -1 -1 -0 -0 0 -0 -0 -1 -0 -0 1
1 1 1 0 -0 -1 -2 -3 -4 -5 -5 -5 -4 -4 -4 -3 -3 -4 -4 -3 -3 -3 -2 -2 -2 -2 -2 -2 -1 -0 -0 -0 -1 -0 -0 0 0 1
1 0 0 -0 -1 -2 -3 -4 -4 -5 -5 -5 -5 -5 -4 -4 -5 -4 -4 -4 -4 -3 -3 -3 -2 -2 -2 -3 -2 -1 -2 -1 -2 -0 -0 0 0 1
-0 -0 -1 -1 -1 -2 -3 -4 -5 -5 -4 -4 -4 -5 -5 -5 -5 -5 -5 -5 -5 -4 -3 -3 -3 -2 -1 -1 -1 -1 -1 -1 -1 -1 -0 -0 -0 1
-1 -1 -1 -2 -3 -3 -5 -6 -6 -6 -5 -4 -5 -5 -5 -5 -5 -5 -5 -5 -5 -4 -3 -3 -2 -3 -2 -1 -1 -0 -0 -1 -1 -1 -0 -1 -1 1
-2 -2 -2 -2 -3 -4 -5 -7 -7 -7 -6 -5 -6 -6 -6 -5 -5 -5 -5 -5 -5 -4 -3 -2 -3 -3 -2 -1 -1 -1 -1 -1 -1 -1 -1 -1 -1 -0
-2 -2 -3 -3 -4 -6 -7 -8 -8 -7 -7 -7 -7 -6 -6 -5 -5 -5 -5 -5 -4 -4 -2 -3 -3 -2 -3 -2 -2 -2 -1 -1 -1 -1 -1 -1 -1 -1
-4 -4 -3 -5 -5 -6 -7 -8 -8 -7 -7 -7 -6 -6 -6 -5 -5 -5 -5 -5 -4 -4 -3 -3 -3 -2 -2 -1 -1 -1 -2 -1 -2 -2 -1 -1 -1 -1
-5 -5 -4 -5 -5 -6 -7 -6 -7 -7 -7 -7 -7 -6 -6 -6 -6 -5 -5 -5 -4 -4 -4 -4 -3 -3 -3 -3 -2 -1 -1 -1 -1 -1 -2 -1 -1 -1
-4 -5 -5 -5 -6 -6 -6 -5 -6 -6 -6 -6 -7 -6 -6 -6 -6 -6 -5 -5 -4 -4 -3 -3 -3 -3 -3 -2 -2 -2 -1 -2 -1 -2 -2 -2 -2 -2
-4 -5 -6 -5 -5 -5 -4 -4 -5 -5 -6 -6 -7 -7 -6 -6 -6 -6 -6 -5 -5 -4 -3 -3 -3 -3 -3 -3 -3 -3 -2 -2 -2 -2 -1 -1 -1 -1
-5 -5 -5 -5 -4 -4 -4 -4 -5 -5 -6 -6 -7 -7 -7 -7 -7 -6 -6 -6 -5 -5 -5 -4 -3 -3 -4 -4 -3 -3 -2 -1 -2 -2 -1 -1 -1 -1
-5 -6 -5 -5 -4 -4 -5 -4 -4 -5 -6 -6 -7 -7 -7 -8 -7 -7 -6 -6 -6 -6 -5 -4 -4 -4 -4 -3 -3 -3 -3 -2 -1 -1 -1 -1 -1 -1
-6 -6 -6 -5 -4 -4 -4 -4 -4 -5 -6 -7 -7 -8 -8 -8 -8 -7 -7 -6 -6 -6 -5 -4 -5 -5 -5 -4 -5 -4 -3 -3 -2 -2 -1 -1 -2 -2
-6 -6 -6 -5 -4 -4 -4 -4 -5 -6 -7 -7 -8 -8 -8 -8 -8 -8 -8 -8 -7 -6 -5 -5 -5 -5 -6 -5 -4 -5 -4 -3 -2 -2 -2 -2 -3 -3
-5 -6 -5 -5 -4 -4 -4 -5 -5 -6 -7 -7 -8 -8 -8 -8 -8 -8 -8 -8 -8 -7 -7 -6 -6 -5 -5 -4 -4 -4 -5 -4 -3 -2 -3 -3 -3 -3
-5 -4 -5 -4 -4 -4 -4 -5 -6 -6 -7 -7 -7 -8 -8 -9 -9 -8 -8 -8 -8 -8 -7 -7 -6 -6 -5 -4 -4 -4 -5 -5 -4 -4 -4 -3 -3 -4
-4 -4 -4 -4 -4 -4 -4 -5 -5 -6 -6 -7 -7 -8 -8 -9 -9 -8 -8 -8 -8 -8 -9 -9 -7 -6 -6 -4 -4 -4 -4 -5 -5 -5 -5 -5 -4 -4

GFSNE_925_temp_033.txt.gz
Temp
4 4 4 4 3 1 1 1 2 -1 -0 1 2 2 1 1 1 1 0 -0 -0 -1 -1 -1 -0 -0 0 0 1 1 1 1 2 2 2 3 3 3
3 2 2 2 1 1 -0 2 2 1 -2 -0 -0 -0 -0 -1 -1 -1 -1 -1 -1 -1 -1 -1 -1 -0 -0 -0 -0 0 1 1 1 2 2 2 2 2
3 2 2 1 0 1 1 1 0 -1 -2 -2 -2 -2 -2 -2 -2 -2 -2 -2 -2 -2 -2 -1 -1 -1 -0 -0 -1 -1 -0 1 1 1 1 1 1 1
2 2 2 2 2 1 1 -0 -1 -2 -3 -4 -4 -4 -4 -4 -3 -3 -3 -3 -2 -2 -2 -2 -1 -1 -1 -1 -1 -1 -0 -0 0 0 0 0 0 0
2 2 2 2 1 1 -0 -1 -1 -2 -3 -4 -5 -5 -5 -4 -4 -3 -3 -3 -3 -3 -3 -2 -2 -2 -1 -1 -1 -1 -1 -1 -0 -0 -0 -0 -0 0
1 1 1 1 0 -0 -1 -2 -3 -3 -4 -5 -5 -5 -5 -5 -4 -4 -4 -5 -5 -4 -4 -3 -3 -2 -2 -2 -2 -1 -1 -1 -1 -0 -1 -0 -0 -0
1 1 0 -0 -0 -1 -2 -3 -4 -4 -5 -5 -6 -6 -5 -5 -5 -5 -5 -5 -5 -5 -4 -3 -4 -3 -3 -2 -2 -2 -2 -0 -1 -1 -1 -1 -0 -0
0 -0 -0 -1 -1 -2 -3 -4 -4 -5 -5 -6 -6 -6 -5 -6 -5 -6 -6 -6 -6 -5 -5 -5 -4 -4 -3 -2 -2 -3 -2 -2 -2 -2 -1 -1 -0 -0
-0 -1 -1 -1 -2 -2 -3 -3 -4 -5 -6 -6 -6 -6 -6 -6 -6 -6 -6 -6 -6 -5 -6 -6 -4 -4 -3 -3 -2 -2 -2 -2 -1 -1 -1 -1 -1 0
-1 -1 -1 -2 -2 -3 -3 -4 -5 -5 -6 -6 -6 -7 -7 -6 -6 -6 -6 -6 -6 -5 -5 -5 -4 -4 -2 -2 -2 -2 -2 -1 -1 -1 -1 -1 -1 -1
-2 -2 -2 -2 -3 -4 -4 -5 -6 -6 -7 -7 -7 -6 -6 -6 -6 -6 -5 -6 -5 -5 -4 -5 -4 -3 -3 -2 -2 -1 -2 -2 -1 -1 -1 -1 -1 -1
-2 -3 -3 -3 -4 -4 -5 -6 -7 -6 -7 -7 -7 -6 -6 -6 -6 -6 -6 -6 -6 -5 -4 -4 -4 -4 -4 -2 -2 -1 -2 -2 -1 -1 -1 -1 -1 -1
-3 -3 -4 -4 -5 -5 -6 -6 -6 -7 -7 -7 -7 -7 -6 -6 -6 -6 -6 -6 -6 -6 -4 -5 -4 -4 -3 -3 -3 -2 -2 -2 -2 -2 -2 -2 -2 -1
-3 -3 -4 -5 -5 -5 -5 -5 -6 -6 -6 -6 -7 -7 -7 -7 -7 -6 -6 -6 -5 -6 -5 -4 -4 -4 -4 -4 -3 -2 -2 -2 -2 -2 -2 -2 -2 -1
-3 -4 -5 -5 -5 -5 -5 -5 -6 -6 -6 -6 -6 -7 -7 -7 -7 -7 -7 -6 -5 -5 -5 -4 -4 -4 -4 -4 -3 -3 -3 -2 -2 -3 -2 -2 -2 -1
-3 -4 -5 -4 -5 -5 -5 -4 -4 -5 -5 -6 -6 -7 -7 -7 -7 -7 -7 -7 -6 -6 -5 -4 -4 -4 -4 -4 -4 -3 -3 -3 -2 -2 -2 -2 -2 -2
-4 -5 -6 -5 -5 -5 -5 -4 -5 -5 -5 -6 -6 -7 -7 -8 -8 -8 -7 -7 -7 -7 -6 -5 -5 -4 -4 -4 -4 -4 -3 -2 -2 -2 -2 -2 -2 -1
-5 -5 -5 -5 -5 -5 -5 -5 -5 -5 -5 -6 -7 -7 -8 -8 -8 -8 -8 -8 -8 -7 -7 -6 -5 -5 -5 -4 -5 -4 -4 -3 -2 -2 -2 -2 -2 -1
-5 -5 -6 -6 -5 -5 -5 -4 -4 -5 -6 -6 -7 -7 -8 -8 -8 -8 -8 -8 -8 -8 -7 -6 -6 -6 -6 -5 -5 -5 -4 -3 -2 -2 -2 -2 -3 -2
-5 -5 -6 -5 -5 -5 -5 -4 -4 -5 -5 -6 -7 -7 -8 -8 -8 -8 -8 -8 -8 -8 -7 -7 -7 -7 -7 -6 -5 -5 -5 -4 -3 -2 -3 -3 -3 -3
-5 -5 -6 -5 -5 -5 -5 -4 -4 -5 -5 -6 -6 -7 -8 -8 -8 -8 -9 -8 -8 -8 -8 -8 -8 -7 -6 -5 -5 -5 -5 -4 -3 -3 -3 -3 -3 -4
-5 -5 -5 -5 -5 -4 -4 -5 -5 -5 -5 -6 -6 -8 -8 -8 -9 -9 -9 -8 -8 -8 -9 -9 -7 -7 -6 -5 -5 -5 -5 -5 -5 -4 -4 -3 -3 -4
-4 -4 -4 -5 -5 -4 -4 -4 -5 -5 -6 -6 -7 -7 -8 -8 -9 -9 -9 -9 -8 -9 -9 -9 -8 -7 -7 -6 -6 -5 -5 -5 -5 -6 -6 -5 -5 -5

GFSNE_925_temp_036.txt.gz
Temp
4 4 3 2 2 1 1 1 -0 -1 -2 1 0 -0 -1 -1 -1 -1 -2 -2 -2 -2 -2 -2 -1 -1 -1 -0 0 0 1 1 1 2 2 3 3 3
4 3 2 2 1 1 -0 -0 -0 -1 -3 -1 -1 -2 -2 -3 -3 -3 -3 -3 -2 -2 -2 -2 -2 -2 -1 -1 -1 -0 -0 0 1 1 2 2 2 3
3 2 2 2 1 1 1 0 -0 -1 -3 -2 -2 -3 -3 -4 -4 -4 -4 -3 -3 -3 -3 -3 -2 -2 -2 -2 -1 -1 -1 -1 -1 -0 1 1 2 1
3 2 2 2 1 1 1 -0 -1 -2 -3 -4 -4 -4 -4 -4 -4 -4 -4 -4 -4 -4 -4 -3 -3 -3 -3 -2 -2 -2 -1 -1 -1 -1 -0 1 1 1
2 2 1 1 1 0 -0 -1 -2 -2 -3 -4 -5 -5 -5 -5 -5 -5 -5 -5 -5 -5 -5 -4 -4 -3 -3 -3 -3 -2 -2 -2 -2 -1 -1 -1 -1 -1
2 1 1 1 0 -0 -1 -2 -3 -3 -4 -5 -5 -6 -6 -5 -6 -6 -6 -5 -6 -5 -5 -5 -5 -4 -4 -3 -3 -3 -3 -3 -3 -2 -1 -1 -1 -1
1 1 1 -0 -1 -1 -2 -2 -3 -4 -5 -5 -6 -6 -6 -6 -6 -6 -6 -6 -6 -5 -5 -4 -5 -4 -3 -3 -3 -2 -2 -2 -3 -2 -1 -1 -1 -1
1 1 -0 -1 -1 -1 -2 -3 -4 -5 -5 -6 -7 -7 -7 -7 -7 -7 -7 -7 -6 -5 -5 -5 -5 -4 -4 -3 -3 -3 -3 -3 -3 -2 -1 -1 -1 -1
0 -0 -1 -1 -1 -2 -2 -3 -4 -4 -5 -6 -7 -7 -7 -7 -7 -7 -7 -7 -7 -6 -6 -6 -5 -4 -3 -3 -2 -3 -3 -2 -2 -2 -2 -1 -1 -1
-0 -1 -1 -2 -2 -2 -3 -4 -4 -4 -5 -6 -7 -7 -7 -7 -7 -7 -6 -6 -6 -6 -5 -6 -5 -4 -3 -3 -2 -2 -2 -2 -2 -2 -1 -1 -1 -1
-1 -1 -2 -2 -3 -3 -4 -5 -5 -5 -6 -6 -7 -7 -7 -7 -7 -6 -7 -7 -6 -6 -5 -5 -4 -5 -4 -3 -2 -2 -2 -2 -2 -2 -1 -1 -1 -1
-1 -2 -2 -3 -3 -4 -5 -5 -6 -5 -6 -6 -6 -6 -7 -7 -7 -7 -7 -7 -7 -6 -5 -6 -5 -5 -5 -3 -2 -2 -2 -2 -2 -2 -1 -1 -2 -2
-1 -2 -3 -3 -4 -4 -5 -6 -6 -6 -6 -6 -7 -7 -7 -7 -7 -7 -7 -7 -7 -7 -6 -6 -5 -5 -5 -4 -3 -3 -3 -3 -2 -2 -2 -2 -2 -3
-2 -2 -3 -4 -4 -5 -5 -5 -5 -6 -6 -6 -6 -6 -7 -7 -7 -7 -7 -7 -7 -7 -6 -6 -5 -4 -4 -4 -5 -3 -3 -2 -3 -3 -2 -2 -3 -3
-2 -2 -4 -4 -4 -5 -5 -5 -5 -5 -5 -6 -6 -6 -7 -7 -7 -7 -7 -7 -6 -6 -6 -5 -6 -6 -6 -4 -4 -4 -4 -3 -3 -3 -2 -3 -3 -2
-3 -3 -4 -4 -5 -5 -5 -5 -5 -5 -5 -5 -6 -6 -7 -7 -8 -8 -8 -8 -7 -7 -6 -6 -5 -5 -6 -4 -4 -4 -4 -4 -2 -3 -3 -3 -2 -2
-2 -3 -4 -5 -6 -5 -5 -5 -5 -5 -5 -5 -6 -7 -7 -8 -8 -8 -8 -8 -9 -8 -8 -6 -6 -5 -5 -4 -4 -5 -5 -4 -3 -3 -2 -2 -2 -3
-3 -4 -5 -5 -6 -6 -6 -5 -5 -5 -5 -5 -6 -7 -7 -8 -8 -8 -8 -8 -9 -9 -8 -7 -7 -7 -6 -5 -5 -5 -5 -4 -3 -2 -3 -2 -2 -2
-4 -4 -5 -5 -5 -5 -6 -6 -5 -5 -5 -5 -6 -7 -8 -8 -8 -8 -8 -9 -9 -9 -8 -8 -8 -8 -8 -8 -5 -5 -6 -4 -4 -3 -3 -3 -3 -2
-4 -5 -5 -5 -5 -5 -5 -6 -5 -5 -5 -5 -6 -7 -7 -8 -8 -9 -9 -9 -9 -9 -9 -9 -8 -9 -9 -9 -6 -5 -6 -5 -4 -3 -4 -4 -3 -3
-5 -5 -5 -5 -5 -5 -5 -5 -5 -5 -5 -5 -6 -6 -7 -8 -8 -9 -9 -9 -9 -9 -9 -9 -8 -7 -7 -6 -6 -5 -6 -5 -4 -3 -4 -4 -4 -3
-5 -5 -5 -5 -5 -5 -5 -5 -5 -5 -5 -6 -6 -6 -7 -8 -8 -9 -9 -9 -9 -9 -9 -9 -8 -7 -7 -6 -5 -5 -6 -5 -5 -5 -4 -4 -4 -7
-4 -5 -4 -5 -5 -5 -5 -5 -5 -5 -5 -5 -6 -6 -7 -7 -8 -9 -9 -9 -9 -9 -9 -9 -8 -8 -7 -7 -7 -6 -5 -5 -6 -5 -5 -5 -5 -5

GFSNE_925_temp_039.txt.gz
Temp
5 4 4 3 2 2 1 1 -0 0 -1 0 0 0 -1 -2 -2 -3 -3 -3 -3 -3 -3 -3 -2 -2 -1 -1 -1 -0 0 0 1 1 2 2 2 2
4 4 3 2 2 2 1 1 0 -1 -3 -1 -1 -2 -2 -3 -3 -4 -4 -4 -4 -4 -4 -3 -3 -3 -2 -2 -2 -1 -1 -0 0 0 1 1 1 2
4 4 3 2 1 1 1 0 0 -1 -2 -2 -2 -2 -3 -4 -4 -4 -4 -4 -4 -4 -4 -4 -4 -3 -3 -3 -3 -2 -2 -1 -1 -1 -0 0 0 1
4 3 2 2 1 1 1 0 -1 -1 -2 -3 -3 -4 -4 -4 -5 -5 -5 -5 -5 -5 -5 -4 -4 -4 -4 -3 -3 -3 -2 -2 -2 -2 -2 -2 -1 0
3 3 2 1 1 1 0 -1 -1 -2 -3 -4 -5 -5 -5 -5 -5 -5 -5 -5 -5 -6 -5 -5 -5 -4 -5 -4 -4 -3 -3 -3 -2 -2 -3 -2 -2 -1
3 2 2 1 1 1 -0 -1 -2 -3 -3 -4 -5 -6 -6 -6 -6 -6 -6 -6 -6 -6 -4 -4 -4 -5 -5 -4 -4 -4 -3 -3 -3 -3 -3 -2 -2 -1
2 2 1 1 0 -0 -1 -1 -2 -3 -4 -5 -6 -7 -7 -7 -7 -7 -7 -7 -7 -5 -5 -5 -5 -4 -4 -3 -4 -3 -3 -3 -3 -3 -3 -3 -2 -1
2 1 1 0 -0 -1 -1 -2 -3 -4 -4 -6 -6 -7 -8 -7 -7 -8 -8 -8 -6 -6 -6 -6 -6 -5 -4 -3 -3 -3 -3 -4 -4 -3 -3 -3 -2 -2
2 1 0 -0 -1 -2 -2 -3 -4 -4 -5 -6 -7 -7 -8 -7 -7 -8 -7 -7 -7 -6 -6 -6 -6 -5 -4 -4 -3 -3 -3 -3 -2 -2 -2 -2 -1 -1
1 0 -0 -1 -1 -2 -3 -3 -4 -4 -5 -5 -6 -7 -7 -7 -7 -7 -7 -7 -7 -7 -6 -7 -6 -5 -5 -4 -3 -3 -2 -3 -3 -2 -2 -2 -1 -1
-0 -1 -1 -2 -2 -2 -3 -4 -4 -4 -5 -6 -7 -7 -7 -7 -7 -7 -7 -8 -7 -7 -6 -7 -5 -6 -5 -3 -2 -2 -3 -2 -3 -2 -2 -2 -2 -1
-0 -2 -2 -2 -2 -3 -4 -4 -5 -5 -5 -6 -6 -6 -6 -7 -7 -7 -7 -8 -8 -7 -6 -7 -6 -6 -5 -3 -3 -3 -3 -3 -3 -2 -2 -2 -2 -1
-0 -1 -2 -2 -2 -3 -4 -5 -5 -5 -6 -6 -6 -6 -6 -6 -7 -7 -7 -8 -9 -8 -7 -7 -7 -7 -5 -5 -4 -4 -4 -3 -3 -3 -3 -2 -2 -3
-1 -1 -1 -2 -3 -3 -4 -5 -5 -6 -6 -6 -6 -6 -6 -6 -7 -7 -8 -8 -8 -8 -7 -7 -7 -7 -6 -6 -5 -4 -4 -3 -3 -3 -3 -3 -3 -3
-1 -1 -1 -3 -3 -4 -4 -5 -5 -6 -6 -6 -6 -6 -6 -7 -7 -8 -8 -8 -7 -7 -7 -7 -7 -7 -7 -6 -6 -4 -5 -4 -3 -3 -3 -3 -3 -3
-1 -2 -2 -3 -4 -5 -5 -5 -5 -5 -5 -5 -5 -5 -6 -7 -7 -8 -8 -8 -8 -8 -7 -7 -7 -7 -7 -7 -6 -5 -5 -5 -3 -3 -3 -3 -3 -3
-1 -3 -4 -4 -5 -5 -5 -5 -5 -5 -5 -5 -5 -5 -6 -7 -8 -8 -8 -9 -9 -9 -9 -7 -7 -7 -6 -6 -5 -5 -5 -5 -4 -4 -3 -3 -3 -3
-3 -4 -5 -5 -5 -5 -5 -5 -5 -5 -5 -5 -5 -5 -6 -7 -8 -8 -9 -9 -9 -9 -9 -8 -8 -8 -7 -5 -6 -5 -5 -5 -4 -4 -3 -3 -3 -3
-3 -4 -5 -5 -5 -5 -5 -5 -5 -5 -5 -5 -5 -5 -6 -7 -8 -8 -9 -9 -9 -9 -9 -9 -9 -9 -9 -9 -6 -6 -7 -6 -6 -4 -5 -4 -4 -4
-3 -4 -5 -5 -5 -5 -5 -5 -5 -5 -6 -5 -5 -6 -6 -7 -8 -8 -9 -9 -9 -9 -9 -9 -9 -9 -9 -10 -8 -6 -6 -6 -5 -4 -4 -4 -3 -3
-3 -4 -4 -5 -5 -5 -5 -5 -5 -5 -5 -5 -5 -6 -7 -8 -8 -8 -9 -9 -9 -9 -10 -10 -9 -8 -7 -7 -7 -6 -6 -6 -6 -5 -4 -4 -4 -4
-4 -4 -4 -4 -5 -5 -5 -5 -5 -5 -6 -6 -6 -6 -6 -7 -8 -8 -9 -9 -9 -9 -9 -9 -8 -7 -7 -7 -6 -6 -5 -6 -6 -6 -6 -6 -6 -5
-4 -4 -4 -4 -5 -5 -5 -5 -5 -5 -5 -5 -5 -6 -7 -7 -7 -8 -9 -9 -9 -9 -9 -9 -9 -8 -8 -8 -7 -7 -6 -6 -6 -6 -6 -6 -6 -6

GFSNE_925_temp_042.txt.gz
Temp
5 5 4 4 3 3 2 0 -0 0 -1 0 -0 0 0 -0 -1 -2 -2 -3 -3 -4 -4 -4 -3 -3 -2 -2 -1 -1 -1 -0 0 0 1 1 1 2
5 4 4 3 3 2 2 1 -0 -1 -2 -0 -0 -1 -2 -2 -3 -3 -4 -4 -4 -4 -4 -4 -4 -3 -3 -3 -2 -2 -2 -1 -1 -0 0 0 0 1
4 4 3 3 2 2 1 1 0 -1 -3 -2 -2 -2 -3 -3 -4 -4 -4 -5 -5 -5 -5 -5 -4 -4 -4 -4 -4 -3 -3 -2 -2 -1 -1 -1 -0 0
5 3 3 2 2 1 1 1 0 -1 -2 -3 -3 -3 -4 -4 -4 -5 -5 -5 -5 -5 -5 -5 -5 -5 -5 -4 -4 -4 -4 -3 -3 -2 -2 -2 -1 -1
4 4 3 2 2 1 1 0 -0 -1 -2 -3 -4 -4 -5 -5 -5 -5 -6 -6 -6 -6 -6 -6 -5 -5 -5 -5 -5 -4 -4 -4 -3 -3 -3 -3 -2 -2
4 3 3 2 2 1 1 0 -1 -2 -2 -3 -4 -5 -5 -6 -6 -7 -7 -7 -7 -6 -5 -5 -5 -5 -4 -4 -4 -4 -4 -4 -4 -3 -3 -3 -3 -3
4 3 3 2 1 1 0 -0 -1 -2 -3 -4 -5 -6 -6 -7 -7 -7 -8 -8 -8 -6 -6 -6 -5 -5 -4 -3 -3 -3 -3 -3 -4 -4 -3 -3 -3 -3
3 3 2 1 1 0 -1 -1 -1 -2 -3 -5 -5 -6 -7 -7 -7 -8 -8 -8 -7 -6 -6 -7 -7 -6 -5 -4 -3 -4 -4 -4 -4 -4 -3 -3 -2 -2
3 2 1 1 0 -1 -1 -2 -2 -3 -4 -5 -6 -6 -7 -7 -7 -8 -8 -8 -7 -7 -7 -7 -7 -6 -5 -4 -4 -4 -4 -4 -3 -3 -3 -3 -2 -2
2 1 1 0 -1 -2 -1 -2 -3 -4 -4 -5 -5 -6 -7 -7 -7 -7 -8 -8 -8 -8 -7 -7 -7 -6 -6 -3 -3 -3 -3 -3 -3 -3 -3 -2 -2 -2
1 1 0 -1 -1 -2 -2 -3 -3 -4 -4 -5 -6 -6 -7 -7 -7 -7 -7 -8 -8 -8 -7 -8 -7 -7 -6 -4 -3 -3 -3 -3 -3 -3 -3 -3 -3 -3
1 0 -0 -1 -1 -3 -3 -3 -4 -4 -5 -5 -6 -6 -6 -6 -6 -7 -7 -9 -9 -8 -7 -7 -7 -7 -6 -5 -4 -4 -4 -4 -3 -3 -3 -3 -3 -4
0 -0 -0 -1 -2 -3 -3 -3 -3 -4 -5 -6 -6 -6 -6 -6 -6 -7 -7 -8 -9 -9 -8 -8 -8 -8 -7 -6 -5 -5 -4 -4 -4 -3 -3 -3 -3 -3
-0 -0 -0 -1 -2 -3 -4 -3 -4 -5 -5 -6 -6 -6 -6 -6 -6 -7 -7 -8 -8 -8 -8 -8 -8 -8 -8 -7 -6 -5 -5 -4 -4 -4 -3 -3 -3 -3
-0 -0 -1 -1 -2 -3 -4 -4 -5 -5 -6 -6 -6 -6 -6 -5 -6 -7 -8 -8 -8 -8 -8 -8 -8 -8 -8 -7 -7 -7 -6 -5 -4 -4 -3 -3 -3 -3
-1 -1 -1 -1 -2 -3 -4 -5 -5 -5 -6 -6 -6 -5 -5 -6 -6 -7 -8 -8 -9 -8 -8 -8 -8 -8 -9 -8 -7 -7 -5 -5 -5 -5 -4 -3 -3 -3
-1 -2 -3 -4 -5 -5 -5 -5 -5 -6 -6 -6 -6 -6 -6 -6 -6 -7 -8 -9 -9 -10 -9 -8 -8 -8 -7 -8 -8 -6 -6 -5 -6 -5 -4 -4 -4 -4
-3 -4 -4 -4 -5 -5 -6 -6 -5 -5 -5 -5 -6 -6 -6 -6 -6 -7 -8 -9 -9 -9 -9 -9 -9 -9 -8 -6 -6 -6 -6 -6 -6 -5 -5 -4 -4 -4
-3 -3 -4 -4 -5 -5 -6 -6 -6 -4 -4 -5 -6 -6 -6 -6 -7 -7 -8 -9 -9 -9 -9 -9 -10 -10 -8 -8 -7 -6 -7 -7 -6 -5 -4 -4 -4 -4
-3 -3 -3 -3 -4 -5 -5 -6 -5 -5 -5 -5 -6 -6 -6 -6 -7 -7 -8 -9 -9 -10 -10 -9 -9 -10 -9 -8 -8 -7 -6 -6 -6 -5 -4 -4 -4 -4
-3 -3 -3 -4 -4 -5 -5 -6 -6 -5 -5 -5 -6 -6 -6 -6 -7 -7 -8 -9 -9 -10 -10 -10 -9 -8 -8 -8 -8 -7 -6 -6 -7 -6 -6 -6 -5 -5
-3 -3 -4 -4 -5 -5 -5 -6 -6 -6 -6 -6 -6 -6 -6 -6 -7 -7 -8 -9 -9 -10 -10 -9 -9 -8 -8 -7 -7 -7 -6 -6 -6 -6 -6 -6 -6 -5
-4 -4 -4 -4 -5 -5 -5 -6 -6 -6 -5 -5 -6 -6 -6 -7 -7 -7 -8 -9 -9 -10 -10 -10 -9 -9 -8 -9 -8 -8 -7 -7 -6 -6 -6 -6 -6 -6

GFSNE_925_temp_045.txt.gz
Temp
6 6 5 4 3 3 3 3 3 2 4 4 2 1 0 -0 -1 -2 -2 -3 -2 -2 -3 -4 -4 -3 -3 -2 -2 -2 -1 -1 -0 -0 0 1 1 2
6 5 4 3 3 3 2 2 2 1 3 3 2 1 -0 -1 -2 -3 -3 -3 -4 -4 -4 -5 -4 -4 -4 -3 -3 -3 -2 -2 -1 -1 -0 0 0 1
6 4 4 4 3 2 2 2 2 1 1 2 1 -0 -1 -2 -2 -3 -3 -4 -3 -4 -5 -5 -5 -5 -4 -4 -4 -4 -4 -3 -3 -2 -2 -1 -0 -0
6 3 4 3 2 2 2 2 1 1 1 1 1 -1 -2 -2 -3 -4 -4 -4 -4 -4 -5 -5 -5 -5 -5 -5 -4 -4 -4 -4 -3 -3 -2 -2 -2 -1
5 3 3 2 2 2 2 1 1 0 -0 -0 0 -1 -2 -3 -3 -3 -4 -4 -4 -5 -5 -5 -5 -5 -5 -5 -5 -4 -4 -4 -4 -4 -3 -3 -3 -2
4 4 3 2 2 3 2 1 1 0 -0 -1 -1 -1 -2 -2 -4 -4 -3 -4 -4 -4 -4 -5 -5 -5 -5 -5 -5 -3 -4 -4 -4 -4 -4 -3 -3 -3
4 4 4 3 3 2 1 1 0 -0 -0 -1 -1 -1 -2 -2 -3 -4 -4 -4 -4 -4 -4 -4 -4 -4 -4 -4 -4 -4 -4 -5 -4 -4 -4 -3 -3 -3
3 3 3 3 2 2 1 1 0 -0 -1 -1 -1 -2 -2 -3 -4 -4 -5 -4 -4 -4 -4 -4 -4 -4 -4 -4 -4 -5 -5 -5 -4 -4 -4 -3 -3 -3
3 2 2 2 2 1 -0 -1 -1 -1 -2 -2 -3 -2 -3 -4 -5 -5 -5 -5 -5 -5 -5 -5 -4 -4 -4 -4 -4 -4 -3 -3 -3 -4 -3 -3 -3 -2
3 2 1 1 1 1 -1 -2 -2 -2 -3 -3 -4 -4 -4 -5 -5 -5 -5 -6 -5 -5 -5 -5 -5 -4 -4 -4 -4 -3 -3 -4 -4 -3 -3 -3 -3 -3
2 2 1 0 1 1 -1 -3 -2 -2 -3 -3 -4 -5 -5 -6 -7 -6 -5 -5 -5 -5 -5 -5 -5 -5 -5 -4 -3 -4 -4 -4 -3 -3 -4 -3 -3 -3
1 1 1 1 -0 -1 -1 -3 -3 -2 -3 -4 -5 -5 -6 -6 -7 -6 -6 -6 -5 -5 -5 -6 -6 -5 -5 -4 -4 -4 -4 -4 -4 -4 -4 -3 -3 -3
-0 0 -0 1 0 -0 -1 -3 -3 -3 -3 -4 -4 -4 -5 -5 -5 -5 -6 -6 -6 -6 -5 -7 -6 -6 -5 -5 -5 -4 -4 -4 -4 -4 -4 -3 -3 -3
-0 -0 -1 -0 -0 -1 -2 -2 -3 -4 -5 -5 -5 -5 -5 -5 -5 -5 -5 -6 -6 -7 -7 -7 -7 -7 -7 -6 -5 -4 -4 -4 -4 -4 -4 -3 -3 -3
-1 -0 0 -1 -1 -1 -2 -2 -3 -5 -5 -5 -5 -5 -5 -5 -5 -6 -6 -7 -7 -7 -7 -7 -7 -7 -7 -6 -6 -5 -4 -4 -3 -4 -4 -4 -4 -3
-2 -2 -2 -2 -2 -3 -3 -4 -4 -4 -5 -5 -4 -4 -5 -6 -6 -6 -6 -6 -7 -7 -7 -8 -8 -8 -7 -6 -6 -5 -4 -4 -4 -4 -5 -4 -3 -4
-3 -3 -3 -3 -4 -4 -4 -4 -4 -4 -5 -5 -5 -5 -6 -6 -6 -6 -6 -6 -7 -6 -7 -7 -7 -8 -7 -7 -6 -5 -4 -4 -5 -5 -5 -4 -3 -4
-4 -3 -3 -3 -3 -3 -3 -4 -4 -5 -5 -5 -5 -5 -5 -5 -5 -6 -6 -7 -6 -6 -7 -7 -7 -7 -5 -5 -6 -5 -5 -5 -5 -4 -4 -3 -3 -4
-4 -3 -3 -3 -3 -4 -4 -5 -4 -4 -5 -6 -6 -6 -6 -6 -6 -5 -6 -6 -7 -7 -7 -7 -7 -7 -5 -4 -5 -7 -6 -5 -5 -4 -4 -4 -4 -4
-4 -3 -3 -2 -3 -4 -4 -4 -5 -5 -6 -6 -6 -6 -6 -6 -6 -6 -6 -6 -6 -7 -7 -7 -7 -7 -7 -6 -6 -6 -7 -6 -6 -5 -4 -4 -3 -4
-10 -6 -4 -3 -3 -3 -4 -4 -5 -5 -5 -6 -6 -6 -7 -6 -6 -5 -6 -7 -8 -7 -7 -6 -7 -8 -8 -7 -7 -5 -5 -6 -7 -6 -6 -4 -4 -2
-11 -11 -10 -5 -3 -4 -4 -5 -5 -5 -6 -6 -6 -6 -7 -7 -6 -6 -6 -6 -7 -7 -7 -8 -8 -8 -7 -6 -5 -5 -5 -6 -6 -6 -6 -6 -6 -3
-13 -13 -12 -11 -9 -5 -5 -5 -5 -5 -6 -7 -7 -7 -7 -7 -7 -6 -6 -7 -7 -8 -8 -8 -8 -8 -7 -7 -7 -6 -6 -5 -5 -5 -6 -6 -6 -6

GFSNE_925_temp_048.txt.gz
Temp
7 7 6 8 7 7 7 6 6 6 8 7 6 5 4 3 3 1 0 0 -1 -2 -3 -4 -4 -3 -3 -3 -2 -2 -2 -1 -1 -1 -0 0 1 1
5 4 7 7 7 6 6 6 6 6 7 6 6 5 4 3 2 1 0 -1 -1 -2 -3 -4 -4 -4 -4 -4 -3 -3 -3 -3 -2 -2 -1 -1 -0 1
4 5 6 6 6 6 6 6 5 5 6 6 5 5 4 2 1 1 1 -0 -0 -1 -2 -3 -4 -5 -5 -4 -4 -4 -4 -3 -3 -2 -2 -2 -1 -0
4 5 6 6 6 6 6 5 5 5 5 5 5 4 4 3 1 0 0 -0 -0 -1 -2 -4 -4 -5 -5 -5 -4 -4 -4 -4 -3 -3 -3 -2 -2 -1
4 5 6 6 6 6 5 5 5 5 4 4 4 4 3 3 2 1 0 -0 -0 -1 -1 -2 -3 -4 -4 -4 -4 -4 -4 -4 -4 -4 -3 -3 -3 -3
4 4 5 5 5 5 5 5 4 4 4 4 4 3 3 3 2 1 1 0 0 -0 -1 -1 -2 -2 -3 -3 -4 -4 -4 -4 -4 -4 -4 -4 -3 -3
4 5 5 4 4 5 5 5 4 4 3 4 3 3 3 3 2 1 0 -0 -0 -1 -1 -1 -1 -1 -1 -1 -2 -2 -3 -4 -4 -4 -4 -3 -3 -3
4 4 5 5 3 3 3 3 3 3 3 3 2 2 2 2 1 0 -0 -1 -0 -0 -1 -1 -2 -1 -1 -1 -1 -3 -4 -4 -4 -4 -4 -4 -3 -3
4 4 4 5 4 3 3 2 1 1 1 0 0 1 1 1 0 -0 -1 -1 -1 -1 -2 -2 -2 -2 -2 -1 -2 -3 -4 -4 -4 -4 -4 -4 -4 -3
4 4 4 4 4 3 2 3 2 2 0 -1 -1 0 0 -0 -1 -2 -2 -2 -2 -2 -2 -2 -2 -2 -2 -2 -2 -3 -3 -4 -4 -4 -4 -4 -3 -3
4 4 4 3 3 2 1 1 2 1 0 -1 -1 -1 -2 -2 -3 -4 -3 -2 -2 -2 -2 -2 -2 -2 -2 -2 -2 -3 -3 -3 -3 -4 -4 -4 -4 -4
3 3 3 2 2 2 1 0 0 1 1 -0 -2 -3 -4 -4 -4 -5 -4 -3 -2 -2 -1 -2 -3 -3 -2 -3 -2 -3 -3 -3 -3 -3 -3 -3 -3 -3
2 2 2 2 1 1 0 -0 -1 -0 -1 -2 -2 -1 -1 -2 -2 -3 -4 -3 -3 -2 -2 -4 -4 -4 -3 -3 -3 -3 -3 -3 -3 -3 -3 -3 -3 -3
-1 -0 1 1 0 0 -0 -1 -1 -2 -2 -3 -3 -2 -1 -2 -2 -2 -2 -2 -3 -3 -4 -4 -4 -4 -4 -4 -3 -3 -3 -3 -3 -3 -3 -2 -3 -2
-3 -2 -2 -2 -2 -2 -2 -2 -3 -3 -3 -3 -3 -3 -2 -3 -3 -3 -3 -3 -3 -4 -4 -5 -5 -5 -4 -4 -3 -3 -3 -3 -3 -3 -3 -3 -3 -3
-4 -3 -3 -3 -3 -3 -2 -2 -2 -3 -3 -3 -3 -3 -3 -3 -3 -3 -4 -3 -4 -4 -4 -5 -6 -6 -5 -4 -4 -4 -3 -3 -3 -3 -4 -3 -3 -3
-7 -6 -4 -3 -2 -2 -2 -3 -2 -3 -3 -3 -3 -3 -3 -3 -4 -4 -4 -4 -4 -3 -3 -3 -4 -5 -5 -5 -5 -4 -4 -3 -3 -4 -4 -3 -3 -3
-5 -4 -3 -3 -3 -2 -1 -2 -3 -3 -3 -3 -3 -3 -3 -4 -4 -4 -4 -4 -4 -3 -3 -3 -4 -4 -4 -3 -4 -4 -4 -4 -4 -3 -3 -2 -2 -3
-5 -5 -5 -4 -3 -2 -1 -1 -2 -3 -3 -4 -3 -3 -4 -4 -4 -4 -4 -4 -4 -3 -3 -4 -4 -4 -3 -3 -3 -5 -5 -5 -5 -4 -3 -3 -3 -3
-7 -7 -7 -6 -6 -6 -3 -2 -3 -3 -4 -4 -4 -4 -4 -4 -4 -4 -4 -4 -4 -3 -3 -4 -4 -4 -4 -4 -5 -5 -6 -6 -5 -5 -4 -4 -3 -3
-9 -9 -9 -9 -8 -8 -5 -3 -3 -4 -4 -4 -4 -4 -4 -4 -4 -4 -4 -4 -4 -4 -3 -3 -3 -6 -6 -6 -5 -4 -4 -5 -6 -6 -6 -4 -3 -2
-11 -11 -11 -10 -10 -9 -9 -6 -3 -4 -4 -4 -4 -4 -4 -4 -4 -4 -4 -4 -5 -4 -4 -4 -5 -5 -5 -4 -3 -4 -4 -4 -5 -5 -6 -6 -6 -3
-12 -12 -12 -12 -11 -11 -11 -10 -8 -4 -4 -4 -4 -4 -5 -5 -5 -5 -5 -5 -5 -4 -4 -4 -5 -5 -5 -4 -5 -4 -5 -4 -4 -4 -5 -5 -6 -6